Regional Weather Roundup
Issued by NWS Bismarck, ND

Home | Current Version | Previous Version | Text Only | Print | Product List | Glossary On
Versions: 1 2 3 4 5 6 7 8 9 10 11 12 13 14 15 16 17 18 19 20 21 22 23 24 25 26 27 28 29 30 31 32 33 34 35 36 37 38 39 40 41 42 43 44 45 46 47 48 49 50
000
ASUS43 KBIS 301020
RWRBIS

NWR BROADCAST TEXT
NATIONAL WEATHER SERVICE BISMARCK ND
400 AM CST FRI JAN 30 2015

NOTE: "FAIR" INDICATES FEW OR NO CLOUDS BELOW 12,000 FEET WITH NO
SIGNIFICANT WEATHER AND/OR OBSTRUCTIONS TO VISIBILITY.


CITY           SKY/WX    TMP DP  RH WIND       PRES   REMARKS
WILLISTON      CLEAR     22  17  81 SW3       30.17S
MINOT          CLOUDY    20  16  84 SE7       30.21F WCI  11
MINOT AFB      CLOUDY    18  18  98 SE7       30.21F WCI   9
BISMARCK       CLEAR     20  18  92 SE13      30.32F WCI   7
DICKINSON      PTCLDY    28  18  66 S15       30.15F WCI  16
GARRISON         N/A     19  17  92 S7        30.23F WCI  10
HETTINGER ARPT PTCLDY    25  18  74 S6        30.23F WCI  18
JAMESTOWN      CLOUDY    18  15  88 S16       30.37F WCI   3
BEACH          FAIR      30  23  74 SW7       30.17S
CARRINGTON     CLOUDY    18  18 100 MISG      30.35F
CROSBY         FAIR      23  23 100 SW12      30.16F WCI  12
HARVEY         PTSUNNY   16  14  93 SE13      30.30F WCI   2
HAZEN          FAIR      23  18  80 SW3       30.25F
LINTON         FAIR      19  19 100 S18       30.33F WCI   4
MANDAN         FAIR      19  18  93 S9        30.29F WCI   9
OAKES            N/A     18  16  93 S12       30.43F WCI   5
RUGBY          CLOUDY    16  14  93 SE14G21   30.28F WCI   1
STANLEY        FAIR      19  19 100 SE5       30.16F WCI  13
TIOGA          FAIR      18  18 100 CALM      30.18F
WATFORD CITY   FAIR      21  19  93 CALM      30.14F
$$

CITY           SKY/WX    TMP DP  RH WIND       PRES   REMARKS
GRAND FORKS    CLOUDY     8   1  73 S7        30.48F WCI  -3
GRAND FORKS AF CLOUDY     7   1  76 S9        30.47F WCI  -6
DEVILS LAKE    CLOUDY    16  12  86 S12       30.33F WCI   3
FARGO          MOCLDY    10   2  69 SE8       30.49F WCI  -2
CANDO          CLOUDY    14  10  85 SE8       30.34F WCI   3
CAVALIER       LGT SNOW   7   1  78 SE9       30.45F WCI  -7
GWINNER        CLOUDY    19  18  93 S9        30.45F WCI   9
ROLLA          CLOUDY    12  12 100 S15       30.30F WCI  -4
WALHALLA       HVY SNOW   7   7 100 SE10      30.42F WCI  -8
$$

CITY           SKY/WX    TMP DP  RH WIND       PRES   REMARKS
ABERDEEN       CLEAR     14  11  87 SE3       30.45F
MOBRIDGE       CLEAR     20  17  88 S13       30.32F WCI   7
BUFFALO          N/A     24  16  71 S7        30.15F WCI  16
RAPID CITY     PTCLDY    23  14  68 E5        30.23F WCI  17
GLASGOW        CLEAR     23  20  88 W5        30.17R WCI  17
SIDNEY         CLEAR     25  19  80 S5        30.18S WCI  19
WOLF POINT     CLEAR     21  18  88 CALM      30.17S
GLENDIVE       CLEAR     28  21  74 S9        30.17S WCI  20
MILES CITY     CLEAR     27  22  81 S8        30.18F WCI  19
BAKER          PTCLDY    25  19  78 E5        30.20S WCI  19
$$

CITY           SKY/WX    TMP DP  RH WIND       PRES   REMARKS
BILLINGS       MOCLDY    35  28  75 SW15      30.21S
GREAT FALLS    CLEAR     31  18  58 SW12      30.21R
REGINA         PTCLDY    12  10  92 SE8       30.15F WCI   1
ESTEVAN        PTCLDY    12  10  92 E6        30.16F WCI   3
$$



USA.gov is the U.S. government's official web portal to all federal, state and local government web resources and services.